STARLINK-30231 (57514 NORAD) Tracking and Keplerian Element Data

This shows tracking and keplerian element data for the satellite.

Feedback or suggestion? Click here.




ElementValue
Catalog57514
NameSTARLINK-30231
Epoch Orbit2535
Epoch Day13.23139221
Epoch Year2024
RAAN330.959
Inclination43.0039
Eccentricity0.0001342
Argument of Perigee254.4874
Mean Anonmoly105.582
Mean Motion15.02554119
Decay Rate0.00028791
L11 57514U 23113V 24013.23139221 .00028791 00000+0 21366-2 0 9991
L22 57514 43.0039 330.9590 0001342 254.4874 105.5820 15.02554119 25355



Live tracking and technical data element details for STARLINK-30231 (NORAD 57514). STARLINK-30231 can be tracked NOW for your location showing map with azimuth and elevation plus other details from your city location.







IsCatalogInMostPopularTable: catalog: 57514, numindb: 30
Update: records affected: 1



GetName: 57514 STARLINK-30231

Hit Count: updated at: Thu, 29 Feb 2024 13:12:38 GMT